Location: ?nandapuram
(16.5396°N, 81.1430°E)
Time: 23:34:15
(UTC+00:00)

Meteor 1-28 Rocket - Pass Details

Date: 14 April 2026
Orbit: 420 x 431 km, 97.6° (Epoch: 9 May)

Event Time Altitude Azimuth Distance (km) Brightness Sun altitude
Rises 23:09:44 0° 159° (SSE) 2,394 6.7 -17.3°
Reaches altitude 10° 23:11:46 10° 154° (SSE) 1,527 5.7 -16.9°
Maximum altitude 23:14:57 49° 78° (ENE) 561 3.8 -16.1°
Drops below altitude 10° 23:18:06 10° 2° (N) 1,525 5.8 -15.4°
Sets 23:20:09 0° 356° (N) 2,391 6.7 -14.9°
